Year,Month,Day,Hour,Minute,Value (Times are PST for temperature in C)
2018,07,09,10,44,15.60
2018,07,09,10,45,15.60
2018,07,09,10,46,15.60
2018,07,09,10,47,15.50
2018,07,09,10,48,15.50
2018,07,09,10,49,15.50
2018,07,09,10,50,15.40
2018,07,09,10,51,15.50
2018,07,09,10,52,15.50
2018,07,09,10,53,15.50
2018,07,09,10,54,15.50
2018,07,09,10,55,15.50
2018,07,09,10,56,15.50
2018,07,09,10,57,15.50
2018,07,09,10,58,15.50
2018,07,09,10,59,15.60
2018,07,09,11,00,15.60
2018,07,09,11,01,15.60
2018,07,09,11,02,15.60
2018,07,09,11,03,15.60
2018,07,09,11,04,15.60
2018,07,09,11,05,15.70
2018,07,09,11,06,15.70
2018,07,09,11,07,15.70
2018,07,09,11,08,15.70
2018,07,09,11,09,15.70
2018,07,09,11,10,15.70
2018,07,09,11,11,15.70
2018,07,09,11,12,15.70
2018,07,09,11,13,15.70
2018,07,09,11,14,15.70
2018,07,09,11,15,15.70
2018,07,09,11,16,15.70
2018,07,09,11,17,15.70
2018,07,09,11,18,15.70
2018,07,09,11,19,15.70
2018,07,09,11,20,15.60
2018,07,09,11,21,15.60
2018,07,09,11,22,15.60
2018,07,09,11,23,15.60
2018,07,09,11,24,15.60
2018,07,09,11,25,15.70
2018,07,09,11,26,15.70
2018,07,09,11,27,15.70
2018,07,09,11,28,15.70
2018,07,09,11,29,15.70
2018,07,09,11,30,15.70
2018,07,09,11,31,15.70
2018,07,09,11,32,15.70
2018,07,09,11,33,15.70
2018,07,09,11,34,15.70
2018,07,09,11,35,15.60
2018,07,09,11,36,15.60
2018,07,09,11,37,15.60
2018,07,09,11,38,15.60
2018,07,09,11,39,15.60
2018,07,09,11,40,15.70
2018,07,09,11,41,15.70
2018,07,09,11,42,15.70
2018,07,09,11,43,15.70
2018,07,09,11,44,15.80
2018,07,09,11,45,15.80
2018,07,09,11,46,15.80
2018,07,09,11,47,15.90
2018,07,09,11,48,15.90
2018,07,09,11,49,15.90
2018,07,09,11,50,15.90
2018,07,09,11,51,15.90
2018,07,09,11,52,15.90
2018,07,09,11,53,15.90
2018,07,09,11,54,15.90
2018,07,09,11,55,15.90
2018,07,09,11,56,15.90
2018,07,09,11,57,16.00
2018,07,09,11,58,16.00
2018,07,09,11,59,16.10
2018,07,09,12,00,16.10
2018,07,09,12,01,16.20
2018,07,09,12,02,16.10
2018,07,09,12,03,16.10
2018,07,09,12,04,16.10
2018,07,09,12,05,16.00
2018,07,09,12,06,16.00
2018,07,09,12,07,16.10
2018,07,09,12,08,16.10
2018,07,09,12,09,16.10
2018,07,09,12,10,16.10
2018,07,09,12,11,16.10
2018,07,09,12,12,16.10
2018,07,09,12,13,16.00
2018,07,09,12,14,15.90
2018,07,09,12,15,15.90
2018,07,09,12,16,15.90
2018,07,09,12,17,15.90
2018,07,09,12,18,16.00
2018,07,09,12,19,16.00
2018,07,09,12,20,16.00
2018,07,09,12,21,16.00
2018,07,09,12,22,16.10
2018,07,09,12,23,16.10
2018,07,09,12,24,16.20
2018,07,09,12,25,16.30
2018,07,09,12,26,16.30
2018,07,09,12,27,16.30
2018,07,09,12,28,16.30
2018,07,09,12,29,16.30
2018,07,09,12,30,16.30
2018,07,09,12,31,16.30
2018,07,09,12,32,16.40
2018,07,09,12,33,16.40
2018,07,09,12,34,16.40
2018,07,09,12,35,16.40
2018,07,09,12,36,16.40
2018,07,09,12,37,16.40
2018,07,09,12,38,16.40
2018,07,09,12,39,16.40
2018,07,09,12,40,16.40
2018,07,09,12,41,16.40
2018,07,09,12,42,16.40
2018,07,09,12,43,16.40
2018,07,09,12,44,16.40
2018,07,09,12,45,16.40
2018,07,09,12,46,16.40
2018,07,09,12,47,16.40
2018,07,09,12,48,16.40
2018,07,09,12,49,16.40
2018,07,09,12,50,16.40
2018,07,09,12,51,16.40
2018,07,09,12,52,16.50
2018,07,09,12,53,16.50
2018,07,09,12,54,16.40
2018,07,09,12,55,16.40
2018,07,09,12,56,16.40
2018,07,09,12,57,16.40
2018,07,09,12,58,16.40
2018,07,09,12,59,16.40
2018,07,09,13,00,16.40
2018,07,09,13,01,16.50
2018,07,09,13,02,16.50
2018,07,09,13,03,16.60
2018,07,09,13,04,16.60
2018,07,09,13,05,16.60
2018,07,09,13,06,16.60
2018,07,09,13,07,16.70
2018,07,09,13,08,16.70
2018,07,09,13,09,16.70
2018,07,09,13,10,16.60
2018,07,09,13,11,16.60
2018,07,09,13,12,16.70
2018,07,09,13,13,16.70
2018,07,09,13,14,16.80
2018,07,09,13,15,16.80
2018,07,09,13,16,16.80
2018,07,09,13,17,16.80
2018,07,09,13,18,16.90
2018,07,09,13,19,16.90
2018,07,09,13,20,16.80
2018,07,09,13,21,16.90
2018,07,09,13,22,16.90
2018,07,09,13,23,16.90
2018,07,09,13,24,16.90
2018,07,09,13,25,16.90
2018,07,09,13,26,16.90
2018,07,09,13,27,16.80
2018,07,09,13,28,16.80
2018,07,09,13,29,16.80
2018,07,09,13,30,16.90
2018,07,09,13,31,16.90
2018,07,09,13,32,16.80
2018,07,09,13,33,16.80
2018,07,09,13,34,16.80
2018,07,09,13,35,16.70
2018,07,09,13,36,16.70
2018,07,09,13,37,16.60
2018,07,09,13,38,16.60
2018,07,09,13,39,16.50
2018,07,09,13,40,16.50
2018,07,09,13,41,16.50
2018,07,09,13,42,16.60
2018,07,09,13,43,16.60
2018,07,09,13,44,16.50
2018,07,09,13,45,16.50
2018,07,09,13,46,16.40
2018,07,09,13,47,16.40
2018,07,09,13,48,16.40
2018,07,09,13,49,16.40
2018,07,09,13,50,16.40
2018,07,09,13,51,16.40
2018,07,09,13,52,16.40
2018,07,09,13,53,16.30
2018,07,09,13,54,16.30
2018,07,09,13,55,16.20
2018,07,09,13,56,16.20
2018,07,09,13,57,16.20
2018,07,09,13,58,16.20
2018,07,09,13,59,16.20
2018,07,09,14,00,16.20
2018,07,09,14,01,16.20
2018,07,09,14,02,16.20
2018,07,09,14,03,16.20
2018,07,09,14,04,16.20
2018,07,09,14,05,16.30
2018,07,09,14,06,16.30
2018,07,09,14,07,16.30
2018,07,09,14,08,16.30
2018,07,09,14,09,16.30
2018,07,09,14,10,16.30
2018,07,09,14,11,16.30
2018,07,09,14,12,16.30
2018,07,09,14,13,16.30
2018,07,09,14,14,16.30
2018,07,09,14,15,16.20
2018,07,09,14,16,16.20
2018,07,09,14,17,16.20
2018,07,09,14,18,16.20
2018,07,09,14,19,16.20
2018,07,09,14,20,16.20
2018,07,09,14,21,16.20
2018,07,09,14,22,16.20
2018,07,09,14,23,16.20
2018,07,09,14,24,16.20
2018,07,09,14,25,16.20
2018,07,09,14,26,16.20
2018,07,09,14,27,16.20
2018,07,09,14,28,16.20
2018,07,09,14,29,16.20
2018,07,09,14,30,16.20
2018,07,09,14,31,16.20
2018,07,09,14,32,16.20
2018,07,09,14,33,16.20
2018,07,09,14,34,16.20
2018,07,09,14,35,16.20
2018,07,09,14,36,16.20
2018,07,09,14,37,16.20
2018,07,09,14,38,16.20
2018,07,09,14,39,16.20
2018,07,09,14,40,16.20
2018,07,09,14,41,16.20
2018,07,09,14,42,16.20
2018,07,09,14,43,16.20
2018,07,09,14,44,16.20
2018,07,09,14,45,16.10
2018,07,09,14,46,16.10
2018,07,09,14,47,16.10
2018,07,09,14,48,16.10
2018,07,09,14,49,16.10
2018,07,09,14,50,16.10
2018,07,09,14,51,16.20
2018,07,09,14,52,16.20
2018,07,09,14,53,16.20
2018,07,09,14,54,16.20
2018,07,09,14,55,16.20
2018,07,09,14,56,16.20
2018,07,09,14,57,16.30
2018,07,09,14,58,16.30
2018,07,09,14,59,16.30
2018,07,09,15,00,16.30
2018,07,09,15,01,16.30
2018,07,09,15,02,16.30
2018,07,09,15,03,16.20
2018,07,09,15,04,16.20
2018,07,09,15,05,16.20
2018,07,09,15,06,16.10
2018,07,09,15,07,16.10
2018,07,09,15,08,16.10
2018,07,09,15,09,16.10
2018,07,09,15,10,16.10
2018,07,09,15,11,16.10
2018,07,09,15,12,16.10
2018,07,09,15,13,16.10
2018,07,09,15,14,16.10
2018,07,09,15,15,16.00
2018,07,09,15,16,16.00
2018,07,09,15,17,15.90
2018,07,09,15,18,15.90
2018,07,09,15,19,15.90
2018,07,09,15,20,15.90
2018,07,09,15,21,15.80
2018,07,09,15,22,15.80
2018,07,09,15,23,15.80
2018,07,09,15,24,15.80
2018,07,09,15,25,15.80
2018,07,09,15,26,15.80
2018,07,09,15,27,15.80
2018,07,09,15,28,15.80
2018,07,09,15,29,15.70
2018,07,09,15,30,15.80
2018,07,09,15,31,15.80
2018,07,09,15,32,15.80
2018,07,09,15,33,15.80
2018,07,09,15,34,15.80
2018,07,09,15,35,15.80
2018,07,09,15,36,15.80
2018,07,09,15,37,15.80
2018,07,09,15,38,15.80
2018,07,09,15,39,15.80
2018,07,09,15,40,15.80
2018,07,09,15,41,15.80
2018,07,09,15,42,15.90
2018,07,09,15,43,15.90
2018,07,09,15,44,15.90
2018,07,09,15,45,15.90
2018,07,09,15,46,15.90
2018,07,09,15,47,15.90
2018,07,09,15,48,15.90
2018,07,09,15,49,15.90
2018,07,09,15,50,15.90
2018,07,09,15,51,15.90
2018,07,09,15,52,15.90
2018,07,09,15,53,15.90
2018,07,09,15,54,15.90
2018,07,09,15,55,15.90
2018,07,09,15,56,15.90
2018,07,09,15,57,15.90
2018,07,09,15,58,15.80
2018,07,09,15,59,15.80
2018,07,09,16,00,15.80
2018,07,09,16,01,15.80
2018,07,09,16,02,15.80
2018,07,09,16,03,15.90
2018,07,09,16,04,15.90
2018,07,09,16,05,15.90
2018,07,09,16,06,15.90
2018,07,09,16,07,16.00
2018,07,09,16,08,16.00
2018,07,09,16,09,16.00
2018,07,09,16,10,16.00
2018,07,09,16,11,16.10
2018,07,09,16,12,16.10
2018,07,09,16,13,16.10
2018,07,09,16,14,16.10
2018,07,09,16,15,16.10
2018,07,09,16,16,16.00
2018,07,09,16,17,16.00
2018,07,09,16,18,15.90
2018,07,09,16,19,15.90
2018,07,09,16,20,15.90
2018,07,09,16,21,15.90
2018,07,09,16,22,15.80
2018,07,09,16,23,15.80
2018,07,09,16,24,15.80
2018,07,09,16,25,15.80
2018,07,09,16,26,15.70
2018,07,09,16,27,15.70
2018,07,09,16,28,15.70
2018,07,09,16,29,15.70
2018,07,09,16,30,15.70
2018,07,09,16,31,15.70
2018,07,09,16,32,15.70
2018,07,09,16,33,15.70
2018,07,09,16,34,15.70
2018,07,09,16,35,15.70
2018,07,09,16,36,15.70
2018,07,09,16,37,15.60
2018,07,09,16,38,15.60
2018,07,09,16,39,15.60
2018,07,09,16,40,15.60
2018,07,09,16,41,15.70
2018,07,09,16,42,15.70
2018,07,09,16,43,15.70
2018,07,09,16,44,15.70
2018,07,09,16,45,15.80
2018,07,09,16,46,15.80
2018,07,09,16,47,15.80
2018,07,09,16,48,15.80
2018,07,09,16,49,15.80
2018,07,09,16,50,15.80
2018,07,09,16,51,15.80
2018,07,09,16,52,15.80
2018,07,09,16,53,15.90
2018,07,09,16,54,15.90
2018,07,09,16,55,16.00
2018,07,09,16,56,16.00
2018,07,09,16,57,16.10
2018,07,09,16,58,16.10
2018,07,09,16,59,16.20
2018,07,09,17,00,16.20
2018,07,09,17,01,16.20
2018,07,09,17,02,16.20
2018,07,09,17,03,16.20
2018,07,09,17,04,16.20
2018,07,09,17,05,16.20
2018,07,09,17,06,16.20
2018,07,09,17,07,16.20
2018,07,09,17,08,16.20
2018,07,09,17,09,16.20
2018,07,09,17,10,16.20
2018,07,09,17,11,16.20
2018,07,09,17,12,16.20
2018,07,09,17,13,16.20
2018,07,09,17,14,16.20
2018,07,09,17,15,16.10
2018,07,09,17,16,16.10
2018,07,09,17,17,16.00
2018,07,09,17,18,16.00
2018,07,09,17,19,15.90
2018,07,09,17,20,15.90
2018,07,09,17,21,15.90
2018,07,09,17,22,15.90
2018,07,09,17,23,15.90
2018,07,09,17,24,15.90
2018,07,09,17,25,15.90
2018,07,09,17,26,16.00
2018,07,09,17,27,16.00
2018,07,09,17,28,16.00
2018,07,09,17,29,16.10
2018,07,09,17,30,16.10
2018,07,09,17,31,16.10
2018,07,09,17,32,16.10
2018,07,09,17,33,16.10
2018,07,09,17,34,16.00
2018,07,09,17,35,16.00
2018,07,09,17,36,16.00
2018,07,09,17,37,16.00
2018,07,09,17,38,16.00
2018,07,09,17,39,16.00
2018,07,09,17,40,16.00
2018,07,09,17,41,15.90
2018,07,09,17,42,15.90
2018,07,09,17,43,15.90
2018,07,09,17,44,15.90
2018,07,09,17,45,16.00
2018,07,09,17,46,16.00
2018,07,09,17,47,16.10
2018,07,09,17,48,16.10
2018,07,09,17,49,16.20
2018,07,09,17,50,16.20
2018,07,09,17,51,16.20
2018,07,09,17,52,16.20
2018,07,09,17,53,16.20
2018,07,09,17,54,16.20
2018,07,09,17,55,16.10
2018,07,09,17,56,16.10
2018,07,09,17,57,16.10
2018,07,09,17,58,16.10
2018,07,09,17,59,16.10
2018,07,09,18,00,16.10
2018,07,09,18,01,16.00
2018,07,09,18,02,16.00
2018,07,09,18,03,16.00
2018,07,09,18,04,16.00
2018,07,09,18,05,16.00
2018,07,09,18,06,16.00
2018,07,09,18,07,16.00
2018,07,09,18,08,16.00
2018,07,09,18,09,15.90
2018,07,09,18,10,15.90
2018,07,09,18,11,15.80
2018,07,09,18,12,15.80
2018,07,09,18,13,15.80
2018,07,09,18,14,15.80
2018,07,09,18,15,15.80
2018,07,09,18,16,15.80
2018,07,09,18,17,15.80
2018,07,09,18,18,15.80
2018,07,09,18,19,15.80
2018,07,09,18,20,15.70
2018,07,09,18,21,15.70
2018,07,09,18,22,15.70
2018,07,09,18,23,15.70
2018,07,09,18,24,15.70
2018,07,09,18,25,15.70
2018,07,09,18,26,15.70
2018,07,09,18,27,15.70
2018,07,09,18,28,15.70
2018,07,09,18,29,15.70
2018,07,09,18,30,15.70
2018,07,09,18,31,15.70
2018,07,09,18,32,15.70
2018,07,09,18,33,15.70
2018,07,09,18,34,15.70
2018,07,09,18,35,15.70
2018,07,09,18,36,15.70
2018,07,09,18,37,15.70
2018,07,09,18,38,15.70
2018,07,09,18,39,15.70
2018,07,09,18,40,15.70
2018,07,09,18,41,15.60
2018,07,09,18,42,15.60
2018,07,09,18,43,15.60
2018,07,09,18,44,15.60
2018,07,09,18,45,15.60
2018,07,09,18,46,15.60
2018,07,09,18,47,15.60
2018,07,09,18,48,15.50
2018,07,09,18,49,15.50
2018,07,09,18,50,15.50
2018,07,09,18,51,15.50
2018,07,09,18,52,15.50
2018,07,09,18,53,15.50
2018,07,09,18,54,15.50
2018,07,09,18,55,15.50
2018,07,09,18,56,15.50
2018,07,09,18,57,15.50
2018,07,09,18,58,15.50
2018,07,09,18,59,15.50
2018,07,09,19,00,15.50
2018,07,09,19,01,15.50
2018,07,09,19,02,15.50
2018,07,09,19,03,15.50
2018,07,09,19,04,15.50
2018,07,09,19,05,15.50
2018,07,09,19,06,15.50
2018,07,09,19,07,15.50
2018,07,09,19,08,15.50
2018,07,09,19,09,15.50
2018,07,09,19,10,15.50
2018,07,09,19,11,15.50
2018,07,09,19,12,15.50
2018,07,09,19,13,15.50
2018,07,09,19,14,15.50
2018,07,09,19,15,15.50
